Gander International Airport

Jump to: basic info | weather | frequencies | runways | comments

Related pages: nearby airports | nearby navaids | notams | map

Basic information (top)

Codes: YQX CYQX
Location: lon 48.936901, lat -54.568100, elev 496 ft / 151 m msl
Status: medium_airport
Scheduled airline service: yes
Links: Wikipedia Mobile

Weather (top)

Current conditions (rec'd 2014/07/29 02:00Z):

CYQX 290200Z 17007KT 20SM FEW170 SCT280 18/11 A3014 RMK AC1CI3 SLP208 DENSITY ALT 700FT

Airport forecast (rec'd 2014/07/28 00:46Z):

TAF CYQX 282340Z 2900/2924 20008KT P6SM FEW080 BKN280 
      BECMG 2906/2908 15010KT 
     FM291000 15010G20KT P6SM BKN030 OVC080 
     FM291400 18015G25KT P6SM -SHRA OVC025 
     FM292000 18012KT P6SM BKN030 
      RMK NXT FCST BY 290600Z

Frequencies (top)

Verify before use: may be inaccurate or out of date.

A/D: 128.5 MHz (APP/DEP)
ATIS: 124.8 MHz (ATIS)
GND: 121.9 MHz (GND)
OPS: 128.85 MHz (OUTCAST OPS)
RCO: 126.7 MHz (HALIFAX RDO)
TWR: 118.1 MHz (TWR)

Runways (top)

03/21: 10,200 x 200 ft (3,109 x 61 m) — paved — lighted

09/27 [CLOSED]: 1,875 x 50 ft (572 x 15 m) — paved — not lighted

13/31: 8,900 x 200 ft (2,713 x 61 m) — paved — lighted

Latest comments (top)

Gander hospitality: Our USAirways flight from Dublin to ... [read]

More... (top)

See also NOTAMs and nearby airports and navaids, or visit the Gander International Airport page at the main OurAirports website..